Hourly Weather Rusakovo

Today, 19 April, Monday

Time Temperature Precipitation Wind Pressure Humidity
00:00 +7°C° 0 mm 2 mps 752 mmHg 92%
01:00 +6°C° 0 mm 2 mps 752 mmHg 91%
02:00 +6°C° 0 mm 2 mps 752 mmHg 91%
03:00 +6°C° 0 mm 2 mps 752 mmHg 91%
04:00 +6°C° 0 mm 2 mps 752 mmHg 92%
05:00 +5°C° 0 mm 2 mps 752 mmHg 92%
06:00 +6°C° 0 mm 2 mps 752 mmHg 88%
07:00 +7°C° 0 mm 3 mps 752 mmHg 83%
08:00 +9°C° 0 mm 3 mps 752 mmHg 78%
09:00 +9°C° 0 mm 3 mps 752 mmHg 73%
10:00 +10°C° 0 mm 4 mps 752 mmHg 68%
11:00 +11°C° 0 mm 4 mps 752 mmHg 63%
12:00 +12°C° 0 mm 5 mps 751 mmHg 57%
13:00 +13°C° 0 mm 5 mps 751 mmHg 52%
14:00 +14°C° 0 mm 6 mps 751 mmHg 46%
15:00 +13°C° 0 mm 5 mps 751 mmHg 50%
16:00 +12°C° 0 mm 4 mps 751 mmHg 54%
17:00 +12°C° 0 mm 4 mps 751 mmHg 58%
18:00 +11°C° 0 mm 3 mps 751 mmHg 63%
19:00 +9°C° 0 mm 3 mps 751 mmHg 68%
20:00 +8°C° 0 mm 2 mps 751 mmHg 74%
21:00 +8°C° 0 mm 2 mps 751 mmHg 78%
22:00 +7°C° 0 mm 2 mps 751 mmHg 82%
23:00 +6°C° 0 mm 2 mps 750 mmHg 86%

Tomorrow, 20 April, Tuesday

Time Temperature Precipitation Wind Pressure Humidity
00:00 +6°C° 0 mm 2 mps 750 mmHg 89%
01:00 +5°C° 0 mm 2 mps 750 mmHg 91%
02:00 +5°C° 0 mm 2 mps 750 mmHg 94%
03:00 +5°C° 0 mm 2 mps 750 mmHg 94%
04:00 +5°C° 0 mm 2 mps 749 mmHg 94%
05:00 +5°C° 0 mm 2 mps 749 mmHg 94%
06:00 +6°C° 0 mm 2 mps 749 mmHg 89%
07:00 +7°C° 0 mm 3 mps 749 mmHg 85%
08:00 +8°C° 0 mm 3 mps 749 mmHg 80%
09:00 +8°C° 0.2 mm 3 mps 749 mmHg 81%
10:00 +8°C° 0.2 mm 3 mps 749 mmHg 82%
11:00 +8°C° 0.2 mm 3 mps 748 mmHg 83%
12:00 +9°C° 0.1 mm 2 mps 748 mmHg 79%
13:00 +9°C° 0.1 mm 2 mps 748 mmHg 75%
14:00 +10°C° 0.1 mm 2 mps 747 mmHg 71%
15:00 +10°C° 0.1 mm 2 mps 747 mmHg 68%
16:00 +10°C° 0.1 mm 2 mps 747 mmHg 66%
17:00 +12°C° 0.1 mm 2 mps 746 mmHg 63%
18:00 +9°C° 0.1 mm 2 mps 746 mmHg 70%
19:00 +8°C° 0.1 mm 2 mps 746 mmHg 77%
20:00 +7°C° 0.1 mm 1 mps 746 mmHg 84%
21:00 +7°C° 0 mm 1 mps 746 mmHg 86%
22:00 +6°C° 0 mm 1 mps 746 mmHg 88%
23:00 +6°C° 0 mm 1 mps 746 mmHg 89%

Day after tomorrow, 21 April, Wednesday

Time Temperature Precipitation Wind Pressure Humidity
00:00 +5°C° 0 mm 1 mps 746 mmHg 90%
01:00 +5°C° 0 mm 1 mps 745 mmHg 91%
02:00 +5°C° 0 mm 1 mps 745 mmHg 91%
03:00 +5°C° 0 mm 1 mps 745 mmHg 92%
04:00 +5°C° 0 mm 1 mps 745 mmHg 93%
05:00 +4°C° 0 mm 2 mps 745 mmHg 94%
06:00 +5°C° 0 mm 2 mps 745 mmHg 89%
07:00 +7°C° 0 mm 2 mps 745 mmHg 84%
08:00 +8°C° 0 mm 2 mps 744 mmHg 80%
09:00 +9°C° 0.3 mm 3 mps 744 mmHg 73%
10:00 +11°C° 0.3 mm 3 mps 744 mmHg 66%
11:00 +12°C° 0.3 mm 4 mps 744 mmHg 59%
12:00 +13°C° 0.4 mm 4 mps 743 mmHg 56%
13:00 +13°C° 0.4 mm 4 mps 743 mmHg 53%
14:00 +14°C° 0.4 mm 5 mps 743 mmHg 50%
15:00 +13°C° 0.1 mm 4 mps 743 mmHg 52%
16:00 +13°C° 0.1 mm 4 mps 743 mmHg 54%
17:00 +13°C° 0.1 mm 4 mps 743 mmHg 56%
18:00 +11°C° 0 mm 3 mps 743 mmHg 62%
19:00 +10°C° 0 mm 2 mps 743 mmHg 67%
20:00 +8°C° 0 mm 2 mps 744 mmHg 72%
21:00 +8°C° 0 mm 2 mps 744 mmHg 75%
22:00 +8°C° 0 mm 2 mps 744 mmHg 77%
23:00 +8°C° 0 mm 2 mps 744 mmHg 80%

22 April, Thursday

Time Temperature Precipitation Wind Pressure Humidity
00:00 +7°C° 0 mm 2 mps 743 mmHg 84%
01:00 +7°C° 0 mm 2 mps 743 mmHg 88%
02:00 +6°C° 0 mm 2 mps 743 mmHg 93%
03:00 +5°C° 0 mm 3 mps 743 mmHg 94%
04:00 +5°C° 0 mm 3 mps 743 mmHg 95%
05:00 +4°C° 0 mm 3 mps 744 mmHg 96%
06:00 +6°C° 0 mm 4 mps 744 mmHg 89%
07:00 +7°C° 0 mm 4 mps 744 mmHg 82%
08:00 +8°C° 0 mm 5 mps 745 mmHg 76%
09:00 +9°C° 0 mm 5 mps 745 mmHg 71%
10:00 +9°C° 0 mm 5 mps 746 mmHg 67%
11:00 +10°C° 0 mm 5 mps 746 mmHg 63%
12:00 +10°C° 0 mm 5 mps 746 mmHg 59%
13:00 +12°C° 0 mm 5 mps 746 mmHg 56%
14:00 +12°C° 0 mm 5 mps 746 mmHg 52%
15:00 +11°C° 0.2 mm 4 mps 746 mmHg 60%
16:00 +10°C° 0.2 mm 4 mps 746 mmHg 68%
17:00 +8°C° 0.2 mm 3 mps 746 mmHg 76%
18:00 +8°C° 0.8 mm 3 mps 746 mmHg 81%
19:00 +7°C° 0.8 mm 2 mps 746 mmHg 86%
20:00 +6°C° 0.8 mm 2 mps 747 mmHg 91%
21:00 +6°C° 0.6 mm 2 mps 746 mmHg 90%
22:00 +6°C° 0.6 mm 2 mps 746 mmHg 90%
23:00 +6°C° 0.6 mm 2 mps 746 mmHg 89%

23 April, Friday

Time Temperature Precipitation Wind Pressure Humidity
00:00 +5°C° 0 mm 2 mps 746 mmHg 89%
01:00 +5°C° 0 mm 2 mps 746 mmHg 88%
02:00 +5°C° 0 mm 2 mps 746 mmHg 87%
03:00 +4°C° 0 mm 2 mps 746 mmHg 86%
04:00 +4°C° 0 mm 2 mps 746 mmHg 85%
05:00 +4°C° 0 mm 2 mps 745 mmHg 85%
06:00 +4°C° 0 mm 3 mps 746 mmHg 81%
07:00 +4°C° 0 mm 3 mps 746 mmHg 77%
08:00 +5°C° 0 mm 4 mps 746 mmHg 73%
09:00 +3°C° 0.3 mm 5 mps 746 mmHg 78%
10:00 +3°C° 0.3 mm 5 mps 746 mmHg 84%
11:00 +2°C° 0.3 mm 6 mps 746 mmHg 90%
12:00 +3°C° 0.2 mm 6 mps 746 mmHg 83%
13:00 +4°C° 0.2 mm 6 mps 746 mmHg 75%
14:00 +5°C° 0.2 mm 7 mps 746 mmHg 68%
15:00 +5°C° 0.3 mm 7 mps 746 mmHg 69%
16:00 +5°C° 0.3 mm 6 mps 746 mmHg 70%
17:00 +5°C° 0.3 mm 6 mps 746 mmHg 70%
18:00 +4°C° 0.1 mm 6 mps 747 mmHg 75%
19:00 +3°C° 0.1 mm 5 mps 747 mmHg 80%
20:00 +2°C° 0.1 mm 5 mps 748 mmHg 84%
21:00 +1°C° 0 mm 5 mps 748 mmHg 86%
22:00 0°C° 0 mm 4 mps 748 mmHg 88%
23:00 -1°C° 0 mm 4 mps 748 mmHg 89%

24 April, Saturday

Time Temperature Precipitation Wind Pressure Humidity
00:00 -1°C° 0 mm 4 mps 748 mmHg 89%
01:00 -2°C° 0 mm 4 mps 748 mmHg 89%
02:00 -1°C° 0 mm 3 mps 749 mmHg 89%
03:00 -2°C° 0 mm 3 mps 749 mmHg 90%
04:00 -2°C° 0 mm 3 mps 749 mmHg 90%
05:00 -4°C° 0 mm 3 mps 749 mmHg 90%
06:00 -1°C° 0 mm 2 mps 748 mmHg 80%
07:00 +1°C° 0 mm 2 mps 748 mmHg 71%
08:00 +3°C° 0 mm 2 mps 748 mmHg 61%
09:00 +4°C° 0 mm 2 mps 748 mmHg 58%
10:00 +5°C° 0 mm 2 mps 748 mmHg 54%
11:00 +6°C° 0 mm 2 mps 748 mmHg 50%
12:00 +5°C° 0.2 mm 2 mps 748 mmHg 54%
13:00 +5°C° 0.2 mm 2 mps 748 mmHg 59%
14:00 +5°C° 0.2 mm 2 mps 748 mmHg 63%
15:00 +6°C° 0.2 mm 2 mps 748 mmHg 60%
16:00 +6°C° 0.2 mm 2 mps 748 mmHg 57%
17:00 +6°C° 0.2 mm 2 mps 748 mmHg 55%
18:00 +5°C° 0.2 mm 2 mps 748 mmHg 63%
19:00 +3°C° 0.2 mm 2 mps 748 mmHg 72%
20:00 +2°C° 0.2 mm 2 mps 748 mmHg 81%
21:00 +1°C° 0.1 mm 2 mps 748 mmHg 83%
22:00 +1°C° 0.1 mm 2 mps 748 mmHg 86%
23:00 -1°C° 0.1 mm 2 mps 748 mmHg 88%
Show more